User: anonymous   Login
Location: Unspecified
(0.0000°N, 0.0000°E)
Time: 18:50:22
(UTC+02:00)
Language:

NOAA 12 - Orbit

View from above orbital plane
View from above orbital plane
View from above satellite
View from above satellite

Ground track
Ground track

The orbit data is extracted from the following two-line orbital elements,

1 21263U 91032A   16178.51279702 -.00000005  00000-0  16131-4 0  9997
2 21263  98.5946 203.9920 0012689 237.2422 122.7536 14.25815599306048
Epoch (UTC): 26 June 2016 12:18:25
Eccentricity: 0.0012689
inclination: 98.5946°
perigee height: 796 km
apogee height: 815 km
right ascension of ascending node: 203.9920°
argument of perigee: 237.2422°
revolutions per day: 14.25815599
mean anomaly at epoch: 122.7536°
orbit number at epoch: 30604

The dashed part of the orbit path shows where the satellite is in the earth's shadow,  

DLR